Location: Woodhurst
(52.3667°N, 0.0667°W)
Time: 06:04:11
(UTC+00:00)

ALOS 2 - Pass Details

Date: 19 May 2025
Orbit: 630 x 632 km, 97.9° (Epoch: 18 June)

Event Time Altitude Azimuth Distance (km) Brightness Sun altitude
Exits shadow 22:19:07 16° 115° (ESE) 1,666 4.3 -14.6°
Maximum altitude 22:21:52 30° 63° (ENE) 1,152 4.0 -14.8°
Drops below altitude 10° 22:25:42 10° 3° (N) 2,028 6.2 -15.0°
Sets 22:28:06 0° 353° (N) 2,941 7.6 -15.1°
